"2016-04-21 00:00:00",1565211,3.281,263.7,7.405,1.356,14.18,103.8891,9.23,10.42,51.29,0,110.4,13.13,10.01,225.7
"2016-04-21 00:00:30",1565212,3.476,261.7,7.76,1.468,14.66,103.8894,9.23,10.35,50.99,0,110.4,13.13,10.02,223.7
"2016-04-21 00:01:00",1565213,3.04,257.6,7.063,1.334,13.91,103.8902,9.23,10.42,50.97,0,110.4,13.13,10.02,219.6
"2016-04-21 00:01:30",1565214,2.941,262.2,6.139,1.397,14.04,103.8911,9.24,10.42,50.95,0,110.4,13.13,10.02,224.2
"2016-04-21 00:02:00",1565215,2.725,270.7,6.461,1.256,12.7,103.8935,9.24,10.37,50.72,0,110.4,13.13,10.03,232.7
"2016-04-21 00:02:30",1565216,2.129,257.3,8.71,0.142,11.06,103.8961,9.25,10.25,50.59,0,110.4,13.18,10.03,219.3
"2016-04-21 00:03:00",1565217,2.157,253.5,5.671,0.161,11.13,103.8967,9.25,10.26,50.44,0,110.4,13.18,10.03,215.5
"2016-04-21 00:03:30",1565218,2.306,254.1,4.931,0.199,11.21,103.8979,9.25,10.27,50.23,0,110.4,13.18,10.04,216.1
"2016-04-21 00:04:00",1565219,2.277,258.8,2.894,0.267,11.53,103.8999,9.26,10.28,50.04,0,110.4,13.18,10.04,220.8
"2016-04-21 00:04:30",1565220,3.21,258.7,7.542,1.206,13.32,103.904,9.27,10.4,50.54,0,110.4,13.13,10.05,220.7
"2016-04-21 00:05:00",1565221,4.176,254.4,8.38,1.39,14.3,103.9081,9.28,10.44,50.72,0,110.4,13.13,10.06,216.4
"2016-04-21 00:05:30",1565222,3.294,248.4,7.204,1.253,13.17,103.9078,9.28,10.42,50.73,0,110.4,13.13,10.06,210.4
"2016-04-21 00:06:00",1565223,3.74,251.5,5.697,1.414,13.45,103.9113,9.29,10.32,50.56,0,110.4,13.13,10.07,213.5
"2016-04-21 00:06:30",1565224,2.984,246.8,6.633,1.148,12.51,103.9148,9.3,10.43,50.47,0,110.4,13.13,10.08,208.8
"2016-04-21 00:07:00",1565225,2.914,246.1,7.277,1.408,12.67,103.9181,9.3,10.35,50.49,0,110.4,13.13,10.09,208.1
"2016-04-21 00:07:30",1565226,2.218,244.5,3.327,0.194,11.19,103.9198,9.31,10.29,50.96,0,110.4,13.18,10.09,206.5
"2016-04-21 00:08:00",1565227,2.374,249.7,4.722,0.134,11.35,103.921,9.31,10.3,50.78,0,110.4,13.18,10.10,211.7
"2016-04-21 00:08:30",1565228,2.87,250,5.185,1.094,12.49,103.9204,9.31,10.32,50.66,0,110.4,13.13,10.10,212.0
"2016-04-21 00:09:00",1565229,2.796,246.4,8.65,1.369,13.94,103.921,9.31,10.47,50.73,0,110.4,13.13,10.10,208.4
"2016-04-21 00:09:30",1565230,3.023,243.9,6.625,1.365,13.21,103.9239,9.32,10.3,50.53,0,110.4,13.12,10.10,205.9
"2016-04-21 00:10:00",1565231,2.897,236.2,9.57,1.393,14,103.9242,9.32,10.52,50.71,0,110.4,13.13,10.10,198.2
"2016-04-21 00:10:30",1565232,1.726,222.2,3.689,0.731,11.6,103.9234,9.32,10.31,50.44,0,110.4,13.13,10.10,184.2
"2016-04-21 00:11:00",1565233,2.441,236.8,9.1,1.064,12.37,103.9234,9.32,10.41,50.37,0,110.4,13.13,10.10,198.8
"2016-04-21 00:11:30",1565234,2.838,242.1,10.05,1.36,13.08,103.9222,9.32,10.43,50.19,0,110.4,13.13,10.10,204.1
"2016-04-21 00:12:00",1565235,1.989,235.7,4.129,0.575,11.83,103.9217,9.31,10.37,50.12,0,110.4,13.13,10.10,197.7
"2016-04-21 00:12:30",1565236,2.13,233.9,3.186,0.104,11.45,103.9222,9.32,10.3,50.03,0,110.4,13.17,10.10,195.9
"2016-04-21 00:13:00",1565237,3.189,235.1,6.259,0.994,12.04,103.9194,9.31,10.31,50.08,0,110.4,13.13,10.09,197.1
"2016-04-21 00:13:30",1565238,4.542,247.6,9.12,1.449,14.76,103.9197,9.31,10.48,50.61,0,110.4,13.13,10.09,209.6
"2016-04-21 00:14:00",1565239,3.043,241.4,4.128,0.554,12.24,103.9189,9.31,10.41,50.86,0,110.4,13.18,10.09,203.4
"2016-04-21 00:14:30",1565240,4.42,244.7,6.602,1.435,14.04,103.918,9.3,10.43,51.01,0,110.4,13.13,10.09,206.7
"2016-04-21 00:15:00",1565241,3.555,240.4,5.456,1.064,12.8,103.9169,9.3,10.4,50.71,0,110.4,13.13,10.09,202.4
"2016-04-21 00:15:30",1565242,3.633,240.9,7.233,1.173,12.63,103.9169,9.3,10.41,50.44,0,110.4,13.13,10.09,202.9
"2016-04-21 00:16:00",1565243,3.805,239.4,7.406,1.277,13.27,103.9146,9.3,10.44,50.58,0,110.4,13.13,10.08,201.4
"2016-04-21 00:16:30",1565244,2.687,229.6,2.049,0.112,11.7,103.9028,9.27,10.36,51.06,0,110.4,13.18,10.05,191.6
"2016-04-21 00:17:00",1565245,2.757,231,2.952,0.177,11.65,103.8904,9.23,10.28,51.03,0,110.4,13.18,10.02,193.0
"2016-04-21 00:17:30",1565246,3.695,236.3,7.336,1.36,14.35,103.8904,9.23,10.49,51.75,0,110.4,13.14,10.02,198.3
"2016-04-21 00:18:00",1565247,2.848,227.2,4.195,0.8,12.15,103.8904,9.23,10.3,51.68,0,110.4,13.14,10.02,189.2
"2016-04-21 00:18:30",1565248,3.203,237.9,8.84,1.227,12.9,103.8904,9.23,10.38,51.19,0,110.4,13.14,10.02,199.9
"2016-04-21 00:19:00",1565249,3.517,242.2,8.09,1.373,13.49,103.8904,9.23,10.37,50.6,0,110.4,13.14,10.02,204.2
"2016-04-21 00:19:30",1565250,2.749,231.3,2.714,0.397,11.46,103.8904,9.23,10.24,50.15,0,110.4,13.19,10.02,193.3
"2016-04-21 00:20:00",1565251,3.679,230.7,5.54,1.018,12.29,103.8904,9.23,10.31,50.6,0,110.4,13.14,10.02,192.7
"2016-04-21 00:20:30",1565252,4.338,238.6,8.11,1.401,14.18,103.8904,9.23,10.41,51.02,0,110.4,13.14,10.02,200.6
"2016-04-21 00:21:00",1565253,2.825,229.7,3.29,0.094,11.88,103.8904,9.23,10.25,51.18,0,110.4,13.19,10.02,191.7
"2016-04-21 00:21:30",1565254,3.56,239.3,6.349,1.432,13.55,103.891,9.24,10.36,50.99,0,110.4,13.14,10.02,201.3
"2016-04-21 00:22:00",1565255,3.255,232.5,11.04,1.203,13.2,103.8907,9.23,10.37,51.68,0,110.4,13.15,10.02,194.5
"2016-04-21 00:22:30",1565256,2.424,230,4.388,0.257,11.55,103.8916,9.24,10.25,52.35,0,110.3,13.19,10.02,192.0
"2016-04-21 00:23:00",1565257,3.182,233.6,8.88,1.238,12.79,103.8913,9.24,10.4,52.24,0,110.4,13.14,10.02,195.6
"2016-04-21 00:23:30",1565258,3.416,235.4,7.328,1.346,13.42,103.8907,9.23,10.42,51.97,0,110.4,13.15,10.02,197.4
"2016-04-21 00:24:00",1565259,2.399,228.2,2.173,0.122,11.57,103.8921,9.24,10.25,51.33,0,110.4,13.19,10.02,190.2
"2016-04-21 00:24:30",1565260,3.103,233.9,5.713,0.967,12.57,103.8945,9.24,10.35,51.14,0,110.4,13.15,10.03,195.9
"2016-04-21 00:25:00",1565261,3.865,241.9,8.59,1.482,13.97,103.8945,9.24,10.37,50.82,0,110.4,13.15,10.03,203.9
"2016-04-21 00:25:30",1565262,3.45,233.9,6.944,1.25,13.63,103.9021,9.26,10.47,50.79,0,110.4,13.15,10.05,195.9
"2016-04-21 00:26:00",1565263,4.583,234.4,6.989,1.336,14.02,103.9115,9.29,10.38,50.49,0,110.4,13.14,10.07,196.4
"2016-04-21 00:26:30",1565264,2.985,232.2,6.122,0.892,12.36,103.9143,9.29,10.38,50.23,0,110.3,13.15,10.08,194.2
"2016-04-21 00:27:00",1565265,2.778,240.7,3.104,0.172,11.45,103.92,9.31,10.32,50.08,0,110.3,13.18,10.09,202.7
"2016-04-21 00:27:30",1565266,4.023,244,7.401,1.447,13.94,103.9251,9.32,10.47,50.06,0,110.3,13.14,10.11,206.0
"2016-04-21 00:28:00",1565267,3.915,240.9,7.394,1.343,13.01,103.9319,9.34,10.42,49.93,0,110.3,13.14,10.12,202.9
"2016-04-21 00:28:30",1565268,2.95,236.2,2.211,0.1,11.44,103.9356,9.35,10.32,50.03,0,110.3,13.18,10.13,198.2
"2016-04-21 00:29:00",1565269,3.345,234.9,5.847,1.215,12.71,103.9368,9.35,10.38,50.53,0,110.3,13.14,10.14,196.9
"2016-04-21 00:29:30",1565270,3.409,235.3,7.363,1.262,13.45,103.9386,9.36,10.48,51.2,0,110.3,13.14,10.14,197.3
"2016-04-21 00:30:00",1565271,3.486,242.7,8.36,1.446,14.28,103.938,9.36,10.54,51.63,0,110.4,13.14,10.14,204.7
"2016-04-21 00:30:30",1565272,3.456,241,6.933,1.493,13.42,103.9377,9.35,10.45,51.22,0,110.3,13.14,10.14,203.0
"2016-04-21 00:31:00",1565273,2.896,239.3,4.219,0.14,11.56,103.9308,9.34,10.35,50.84,0,110.3,13.18,10.12,201.3
"2016-04-21 00:31:30",1565274,2.557,237.8,2.603,0.142,11.33,103.9354,9.35,10.34,50.94,0,110.3,13.18,10.13,199.8
"2016-04-21 00:32:00",1565275,3.306,249,7.138,1.374,13.18,103.938,9.36,10.45,50.92,0,110.4,13.14,10.14,211.0
"2016-04-21 00:32:30",1565276,2.897,248.2,5.91,1.256,12.69,103.9392,9.36,10.43,50.51,0,110.3,13.14,10.14,210.2
"2016-04-21 00:33:00",1565277,2.192,241.5,1.915,0.147,11.34,103.9386,9.36,10.35,50.05,0,110.3,13.19,10.14,203.5
"2016-04-21 00:33:30",1565278,2.606,235.6,4.08,0.189,11.53,103.9519,9.39,10.35,49.85,0,110.4,13.19,10.18,197.6
"2016-04-21 00:34:00",1565279,2.932,230.1,2.295,0.087,11.9,103.9569,9.4,10.41,49.93,0,110.4,13.19,10.19,192.1
"2016-04-21 00:34:30",1565280,4.42,240.7,7.399,1.436,14.97,103.9676,9.43,10.56,50.2,0,110.4,13.15,10.22,202.7
"2016-04-21 00:35:00",1565281,4.345,243.5,7.287,1.411,14.44,103.9733,9.45,10.61,50.32,0,110.4,13.15,10.23,205.5
"2016-04-21 00:35:30",1565282,3.502,243,6.665,1.322,13.15,103.975,9.45,10.46,50.18,0,110.4,13.15,10.24,205.0
"2016-04-21 00:36:00",1565283,2.488,239.1,2.425,0.128,11.48,103.9828,9.47,10.44,50.04,0,110.4,13.19,10.26,201.1
"2016-04-21 00:36:30",1565284,2.908,245.4,7.316,1.244,12.78,103.9868,9.48,10.58,49.88,0,110.4,13.14,10.27,207.4
"2016-04-21 00:37:00",1565285,2.932,247.1,7.155,1.225,13.04,103.9965,9.5,10.63,49.42,0,110.4,13.14,10.29,209.1
"2016-04-21 00:37:30",1565286,2.258,241.2,2.254,0.144,11.33,104.0008,9.52,10.48,49.04,0,110.3,13.19,10.30,203.2
"2016-04-21 00:38:00",1565287,2.837,236,2.004,0.126,11.48,104.0062,9.53,10.5,49.02,0,110.4,13.19,10.32,198.0
"2016-04-21 00:38:30",1565288,2.839,235.1,1.422,0.083,11.87,104.0054,9.53,10.52,49.21,0,110.4,13.19,10.31,197.1
"2016-04-21 00:39:00",1565289,3.784,243,6.942,1.346,13.85,104.0139,9.55,10.68,49.1,0,110.4,13.15,10.33,205.0
"2016-04-21 00:39:30",1565290,4.237,248,7.132,1.415,15.08,104.0264,9.58,10.76,48.77,0,110.4,13.14,10.37,210.0
"2016-04-21 00:40:00",1565291,3.746,250.8,5.912,1.285,13.55,104.0294,9.59,10.65,48.41,0,110.4,13.15,10.37,212.8
"2016-04-21 00:40:30",1565292,3.158,247.6,2.468,0.118,11.73,104.0363,9.61,10.56,48.15,0,110.4,13.19,10.39,209.6
"2016-04-21 00:41:00",1565293,3.749,251.6,7.571,1.143,12.9,104.0401,9.62,10.75,48.25,0,110.4,13.14,10.40,213.6
"2016-04-21 00:41:30",1565294,4.15,253.7,7.895,1.349,13.67,104.043,9.62,10.76,48.38,0,110.4,13.14,10.41,215.7
"2016-04-21 00:42:00",1565295,3.139,249.1,1.956,0.115,11.46,104.0488,9.64,10.61,48.16,0,110.4,13.19,10.42,211.1
"2016-04-21 00:42:30",1565296,3.262,250.2,2.571,0.077,11.61,104.0539,9.65,10.63,48.09,0,110.4,13.19,10.44,212.2
"2016-04-21 00:43:00",1565297,3.325,250.4,4.525,0.202,11.97,104.0578,9.66,10.65,47.83,0,110.4,13.19,10.45,212.4
"2016-04-21 00:43:30",1565298,4.971,256.3,7.179,1.413,14.6,104.0669,9.69,10.77,47.82,0,110.4,13.14,10.47,218.3
"2016-04-21 00:44:00",1565299,4.857,266.6,8.36,1.43,15.14,104.0706,9.69,10.88,47.68,0,110.4,13.14,10.48,228.6
"2016-04-21 00:44:30",1565300,4.052,259.1,6.225,1.234,13.52,104.074,9.7,10.77,47.48,0,110.4,13.14,10.49,221.1
"2016-04-21 00:45:00",1565301,3.779,255.4,6.441,1.096,13.23,104.0754,9.71,10.8,47.34,0,110.4,13.14,10.49,217.4
"2016-04-21 00:45:30",1565302,3.715,253.2,7.34,1.263,13.14,104.0757,9.71,10.92,47.28,0,110.4,13.13,10.49,215.2
"2016-04-21 00:46:00",1565303,3.83,256.1,7.863,0.685,11.86,104.0766,9.71,10.72,47.07,0,110.4,13.14,10.50,218.1
"2016-04-21 00:46:30",1565304,3.587,243.8,3.216,0.206,11.49,104.0757,9.71,10.71,47.64,0,110.4,13.18,10.49,205.8
"2016-04-21 00:47:00",1565305,3.066,248.9,6.515,0.239,11.81,104.0748,9.71,10.73,48.53,0,110.4,13.18,10.49,210.9
"2016-04-21 00:47:30",1565306,2.948,258.5,4.958,0.231,12.17,104.0745,9.7,10.72,48.3,0,110.4,13.18,10.49,220.5
"2016-04-21 00:48:00",1565307,4.219,264.3,6.843,1.506,15.41,104.076,9.71,10.92,48.22,0,110.4,13.14,10.49,226.3
"2016-04-21 00:48:30",1565308,4.684,267.1,8.09,1.503,15.1,104.0783,9.71,10.9,48.39,0,110.4,13.14,10.50,229.1
"2016-04-21 00:49:00",1565309,3.519,265.3,6.95,1.346,13.99,104.0774,9.71,10.81,48.49,0,110.4,13.14,10.50,227.3
"2016-04-21 00:49:30",1565310,4.315,268.6,6.922,1.28,14.43,104.0783,9.71,10.91,47.79,0,110.4,13.14,10.50,230.6
"2016-04-21 00:50:00",1565311,3.464,261.9,5.803,1.278,12.94,104.0818,9.72,10.81,47.46,0,110.4,13.14,10.51,223.9
"2016-04-21 00:50:30",1565312,2.801,261.9,3.999,0.294,11.42,104.0854,9.73,10.73,46.91,0,110.4,13.19,10.52,223.9
"2016-04-21 00:51:00",1565313,2.841,261.4,3.321,0.149,11.48,104.0918,9.75,10.75,46.77,0,110.4,13.19,10.53,223.4
"2016-04-21 00:51:30",1565314,2.303,260.1,3.699,0.201,11.76,104.0972,9.76,10.74,46.78,0,110.4,13.19,10.55,222.1
"2016-04-21 00:52:00",1565315,2.324,266,3.672,0.311,12.07,104.1022,9.78,10.76,46.68,0,110.4,13.19,10.56,228.0
"2016-04-21 00:52:30",1565316,2.403,269.8,8.19,0.419,12.32,104.1088,9.79,10.77,46.6,0,110.4,13.19,10.58,231.8
"2016-04-21 00:53:00",1565317,2.627,293.9,9.66,1.166,13.81,104.1098,9.79,10.89,46.7,0,110.4,13.14,10.58,255.9
"2016-04-21 00:53:30",1565318,4.195,279.5,8.23,1.371,15.98,104.111,9.8,11.04,46.68,0,110.4,13.14,10.58,241.5
"2016-04-21 00:54:00",1565319,3.106,276.7,7.375,1.331,14.23,104.1104,9.8,10.88,46.43,0,110.4,13.15,10.58,238.7
"2016-04-21 00:54:30",1565320,3.527,271.9,6.04,1.197,14.39,104.113,9.8,10.93,46.38,0,110.4,13.14,10.59,233.9
"2016-04-21 00:55:00",1565321,3.391,267.4,6.742,1.34,12.86,104.1113,9.8,10.92,46.61,0,110.4,13.14,10.58,229.4
"2016-04-21 00:55:30",1565322,3.134,267.4,5.194,0.145,11.32,104.1077,9.79,10.82,46.43,0,110.4,13.19,10.58,229.4
"2016-04-21 00:56:00",1565323,3.023,255.4,2.997,0.153,11.23,104.1089,9.79,10.83,47,0,110.4,13.19,10.58,217.4
"2016-04-21 00:56:30",1565324,2.617,249.5,3.248,0.1,11.47,104.1185,9.82,10.84,47.54,0,110.4,13.19,10.60,211.5
"2016-04-21 00:57:00",1565325,2.594,248.7,2.147,0.213,11.82,104.1327,9.85,10.85,47.56,0,110.4,13.19,10.64,210.7
"2016-04-21 00:57:30",1565326,2.344,256.8,5.662,0.356,12.21,104.1378,9.87,10.86,47.11,0,110.4,13.19,10.65,218.8
"2016-04-21 00:58:00",1565327,2.573,259.6,9.81,0.997,13.17,104.1416,9.88,10.97,47.11,0,110.4,13.15,10.66,221.6
"2016-04-21 00:58:30",1565328,4.078,280.7,9.42,1.312,16.48,104.1407,9.87,11.11,47.15,0,110.4,13.15,10.66,242.7
"2016-04-21 00:59:00",1565329,4.209,280.4,7.948,1.326,16,104.1395,9.87,11.09,46.54,0,110.4,13.14,10.66,242.4
"2016-04-21 00:59:30",1565330,3.33,276,7.053,1.389,14.04,104.1392,9.87,11.07,46.18,0,110.4,13.14,10.66,238.0
"2016-04-21 01:00:00",1565331,3.041,273,6.079,1.17,12.61,104.141,9.87,10.91,45.84,0,110.4,13.13,10.66,235.0
"2016-04-21 01:00:30",1565332,2.471,272,2.109,0.129,11.51,104.1389,9.87,10.9,45.7,0,110.4,13.18,10.66,234.0
"2016-04-21 01:01:00",1565333,2.567,272.1,2.803,0.114,11.68,104.1398,9.87,10.9,45.55,0,110.4,13.18,10.66,234.1
"2016-04-21 01:01:30",1565334,2.534,270.2,1.557,0.137,11.95,104.1471,9.89,10.91,45.52,0,110.4,13.18,10.68,232.2
"2016-04-21 01:02:00",1565335,2.771,271.7,2.331,0.179,12.18,104.1514,9.9,10.93,45.46,0,110.4,13.18,10.69,233.7
"2016-04-21 01:02:30",1565336,2.838,270.1,4.488,0.166,12.43,104.1542,9.91,10.92,45.6,0,110.4,13.18,10.70,232.1
"2016-04-21 01:03:00",1565337,3.624,274.3,6.833,1.305,15.04,104.1585,9.92,11.09,45.81,0,110.4,13.14,10.71,236.3
"2016-04-21 01:03:30",1565338,4.045,272.8,7.602,1.325,16.73,104.1603,9.92,11.21,46.47,0,110.4,13.14,10.71,234.8
"2016-04-21 01:04:00",1565339,3.716,287.1,12.35,1.485,15.52,104.1609,9.93,11.15,46.4,0,110.4,13.13,10.71,249.1
"2016-04-21 01:04:30",1565340,2.606,293.7,12,1.278,13.51,104.1597,9.92,11.03,45.81,0,110.4,13.13,10.71,255.7
"2016-04-21 01:05:00",1565341,2.01,267.2,4.091,0.223,11.98,104.1591,9.92,10.94,45.51,0,110.4,13.18,10.71,229.2
"2016-04-21 01:05:30",1565342,1.928,265.4,3.704,0.13,11.99,104.1521,9.9,10.96,45.45,0,110.4,13.18,10.69,227.4
"2016-04-21 01:06:00",1565343,2,264.5,2.923,0.199,12.1,104.1468,9.89,10.94,45.4,0,110.4,13.19,10.68,226.5
"2016-04-21 01:06:30",1565344,2.196,272.2,5.789,0.302,12.3,104.1445,9.88,10.94,45.34,0,110.4,13.19,10.67,234.2
"2016-04-21 01:07:00",1565345,2.285,262.6,3.346,0.224,12.48,104.1466,9.89,10.93,45.38,0,110.4,13.19,10.68,224.6
"2016-04-21 01:07:30",1565346,2.953,269.1,11.78,1.329,14.15,104.1469,9.89,11.03,45.58,0,110.4,13.14,10.68,231.1
"2016-04-21 01:08:00",1565347,3.087,275.6,7.957,1.338,14.74,104.1483,9.89,11.05,45.58,0,110.4,13.14,10.68,237.6
"2016-04-21 01:08:30",1565348,3.384,277.8,7.069,1.392,14.97,104.1478,9.89,11.1,45.62,0,110.4,13.14,10.68,239.8
"2016-04-21 01:09:00",1565349,3.268,269.3,8.45,1.491,15.15,104.143,9.88,11.14,45.66,0,110.4,13.14,10.67,231.3
"2016-04-21 01:09:30",1565350,3.045,265,4.409,0.781,12.17,104.1348,9.86,10.91,45.46,0,110.4,13.14,10.65,227.0
"2016-04-21 01:10:00",1565351,2.53,253.1,2.651,0.169,11.44,104.1204,9.82,10.89,45.64,0,110.4,13.19,10.61,215.1
"2016-04-21 01:10:30",1565352,2.064,250.2,1.708,0.11,11.55,104.1148,9.81,10.89,45.83,0,110.4,13.19,10.59,212.2
"2016-04-21 01:11:00",1565353,2.196,256.7,4.915,0.213,11.9,104.1148,9.81,10.87,45.8,0,110.4,13.19,10.59,218.7
"2016-04-21 01:11:30",1565354,2.112,260.8,6.723,0.211,12.2,104.1163,9.81,10.89,45.56,0,110.4,13.19,10.60,222.8
"2016-04-21 01:12:00",1565355,2.184,259.7,4.115,0.128,12.42,104.1154,9.81,10.89,45.59,0,110.4,13.19,10.60,221.7
"2016-04-21 01:12:30",1565356,2.92,263.6,8.48,1.168,13.87,104.1177,9.82,10.98,45.65,0,110.4,13.15,10.60,225.6
"2016-04-21 01:13:00",1565357,3.059,263.2,7.665,1.241,14.38,104.118,9.82,11,45.55,0,110.4,13.15,10.60,225.2
"2016-04-21 01:13:30",1565358,4.108,272.2,7.826,1.388,16.73,104.1192,9.82,11.14,45.57,0,110.4,13.15,10.61,234.2
"2016-04-21 01:14:00",1565359,4.162,272.4,7.371,1.435,15.46,104.1183,9.82,11.12,45.6,0,110.4,13.14,10.60,234.4
"2016-04-21 01:14:30",1565360,2.879,260.8,3.57,0.729,12.33,104.118,9.82,10.91,45.3,0,110.4,13.15,10.60,222.8
"2016-04-21 01:15:00",1565361,2.553,264.1,1.118,0.08,11.69,104.1192,9.82,10.85,45.31,0,110.4,13.19,10.61,226.1
"2016-04-21 01:15:30",1565362,2.533,262.3,2.264,0.121,11.78,104.1207,9.82,10.85,45.31,0,110.4,13.19,10.61,224.3
"2016-04-21 01:16:00",1565363,2.62,259.9,1.688,0.083,12.03,104.1204,9.82,10.86,45.26,0,110.4,13.19,10.61,221.9
"2016-04-21 01:16:30",1565364,2.711,257.5,3.48,0.065,12.25,104.1233,9.83,10.86,45.27,0,110.4,13.19,10.62,219.5
"2016-04-21 01:17:00",1565365,2.806,254,3.137,0.57,12.57,104.1212,9.82,10.84,45.22,0,110.4,13.15,10.61,216.0
"2016-04-21 01:17:30",1565366,4.024,257.8,8.69,1.429,15.26,104.1216,9.82,11.04,45.4,0,110.4,13.14,10.61,219.8
"2016-04-21 01:18:00",1565367,3.828,263.9,6.388,1.392,15.4,104.1239,9.83,11.03,45.44,0,110.4,13.14,10.62,225.9
"2016-04-21 01:18:30",1565368,4.012,270,7.357,1.391,15.35,104.1239,9.83,11.04,45.43,0,110.4,13.14,10.62,232.0
"2016-04-21 01:19:00",1565369,3.3,269.5,8.41,1.223,13.63,104.1236,9.83,10.95,45.44,0,110.4,13.14,10.62,231.5
"2016-04-21 01:19:30",1565370,2.309,257.7,1.503,0.084,11.75,104.1251,9.83,10.86,45.35,0,110.4,13.18,10.62,219.7
"2016-04-21 01:20:00",1565371,2.325,262,5.457,0.144,11.83,104.1251,9.83,10.87,45.37,0,110.4,13.19,10.62,224.0
"2016-04-21 01:20:30",1565372,2.51,266.8,3.275,0.142,12.02,104.1245,9.83,10.88,45.34,0,110.4,13.18,10.62,228.8
"2016-04-21 01:21:00",1565373,2.612,262.2,1.747,0.175,12.29,104.1262,9.84,10.87,45.33,0,110.4,13.19,10.62,224.2
"2016-04-21 01:21:30",1565374,3.057,263.4,1.684,0.291,12.56,104.1283,9.84,10.86,45.33,0,110.4,13.19,10.63,225.4
"2016-04-21 01:22:00",1565375,3.6,271.6,9.35,1.366,15.14,104.1262,9.84,11.08,45.54,0,110.4,13.14,10.62,233.6
"2016-04-21 01:22:30",1565376,3.98,283.8,9.42,1.423,16.57,104.1271,9.84,11.11,45.66,0,110.4,13.14,10.63,245.8
"2016-04-21 01:23:00",1565377,2.631,275.4,6.471,0.928,13.22,104.1274,9.84,10.89,45.41,0,110.4,13.14,10.63,237.4
"2016-04-21 01:23:30",1565378,2.984,271,8.04,1.217,13.52,104.1277,9.84,10.98,45.49,0,110.4,13.15,10.63,233.0
"2016-04-21 01:24:00",1565379,3.326,267.5,7.182,1.19,13.49,104.1283,9.84,11,45.44,0,110.4,13.15,10.63,229.5
"2016-04-21 01:24:30",1565380,2.453,265.8,4.588,0.21,12.01,104.1283,9.84,10.85,45.24,0,110.4,13.19,10.63,227.8
"2016-04-21 01:25:00",1565381,2.668,262.7,6.836,0.119,12.04,104.1286,9.84,10.86,45.25,0,110.4,13.19,10.63,224.7
"2016-04-21 01:25:30",1565382,2.414,270.4,4.44,0.177,12.32,104.1286,9.84,10.84,45.28,0,110.4,13.2,10.63,232.4
"2016-04-21 01:26:00",1565383,2.746,267.6,4.459,0.738,12.93,104.1286,9.84,10.87,45.3,0,110.4,13.15,10.63,229.6
"2016-04-21 01:26:30",1565384,4.142,271.1,8.35,1.592,15.16,104.128,9.84,11.06,45.51,0,110.4,13.15,10.63,233.1
"2016-04-21 01:27:00",1565385,4.258,272,7.003,1.499,15.56,104.1275,9.84,11.03,45.51,0,110.4,13.15,10.63,234.0
"2016-04-21 01:27:30",1565386,2.872,278.3,6.484,1.043,13.81,104.1213,9.82,10.94,45.45,0,110.4,13.15,10.61,240.3
"2016-04-21 01:28:00",1565387,3.5,263.6,5.166,1.219,13.44,104.1187,9.82,10.88,45.43,0,110.4,13.15,10.60,225.6
"2016-04-21 01:28:30",1565388,4.207,264.7,7.535,1.457,15.02,104.1114,9.8,11.03,45.58,0,110.4,13.15,10.59,226.7
"2016-04-21 01:29:00",1565389,2.944,259.7,3.183,0.538,12.27,104.0993,9.77,10.83,45.4,0,110.4,13.15,10.55,221.7
"2016-04-21 01:29:30",1565390,3.245,259.5,1.046,0.118,12.38,104.0947,9.76,10.83,45.47,0,110.4,13.2,10.54,221.5
"2016-04-21 01:30:00",1565391,3.242,261.2,4.245,0.878,13.24,104.0947,9.76,10.9,45.72,0,110.3,13.15,10.54,223.2
"2016-04-21 01:30:30",1565392,4.526,263.6,7.221,1.366,15.32,104.0947,9.76,10.94,45.87,0,110.4,13.15,10.54,225.6
"2016-04-21 01:31:00",1565393,4.241,259.3,7.058,1.438,15.11,104.0939,9.75,10.94,46,0,110.4,13.15,10.54,221.3
"2016-04-21 01:31:30",1565394,3.523,257.1,7.836,1.178,13.77,104.086,9.73,10.88,46.05,0,110.4,13.15,10.52,219.1
"2016-04-21 01:32:00",1565395,2.806,251.4,1.565,0.092,12.11,104.0767,9.71,10.79,45.95,0,110.3,13.2,10.50,213.4
"2016-04-21 01:32:30",1565396,3.824,255.1,6.734,1.313,13.83,104.0705,9.69,10.94,46.17,0,110.3,13.15,10.48,217.1
"2016-04-21 01:33:00",1565397,3.747,254.6,5.762,1.273,13.57,104.0612,9.67,10.8,46.28,0,110.3,13.15,10.46,216.6
"2016-04-21 01:33:30",1565398,3.08,253.5,1.548,0.077,12.3,104.0606,9.67,10.73,46.35,0,110.3,13.2,10.45,215.5
"2016-04-21 01:34:00",1565399,3.922,255.1,6.799,1.317,13.92,104.052,9.65,10.87,46.6,0,110.3,13.15,10.43,217.1
"2016-04-21 01:34:30",1565400,4.601,262.1,8.06,1.43,15.13,104.047,9.63,10.88,46.91,0,110.3,13.15,10.42,224.1
"2016-04-21 01:35:00",1565401,4.916,259.5,7.201,1.342,15.08,104.0338,9.6,10.84,47.08,0,110.3,13.15,10.39,221.5
"2016-04-21 01:35:30",1565402,3.989,259,6.172,1.243,13.88,104.0344,9.6,10.78,46.93,0,110.3,13.16,10.39,221.0
"2016-04-21 01:36:00",1565403,3.397,252.8,1.491,0.082,12.19,104.0251,9.58,10.69,46.81,0,110.3,13.2,10.36,214.8
"2016-04-21 01:36:30",1565404,4.2,256.9,6.818,1.257,13.75,104.0188,9.56,10.77,47.21,0,110.3,13.15,10.35,218.9
"2016-04-21 01:37:00",1565405,4.352,258.5,7.176,1.209,14.04,104.0133,9.55,10.76,47.3,0,110.3,13.16,10.33,220.5
"2016-04-21 01:37:30",1565406,3.79,261.6,7.596,0.881,13.18,104.0109,9.54,10.61,47.19,0,110.3,13.16,10.33,223.6
"2016-04-21 01:38:00",1565407,3.629,267.5,6.939,1.264,14.69,104.0022,9.52,10.79,47.36,0,110.3,13.16,10.30,229.5
"2016-04-21 01:38:30",1565408,3.946,263.4,9.07,1.238,14.35,103.9876,9.48,10.7,47.31,0,110.3,13.16,10.27,225.4
"2016-04-21 01:39:00",1565409,4.988,265.9,8.15,1.44,14.84,103.987,9.48,10.67,47.29,0,110.3,13.16,10.27,227.9
"2016-04-21 01:39:30",1565410,4.053,262.2,10.6,1.097,13.81,103.9902,9.49,10.64,47.14,0,110.3,13.16,10.27,224.2
"2016-04-21 01:40:00",1565411,3.68,255.1,2.395,0.124,12.28,103.9824,9.47,10.52,47.22,0,110.3,13.21,10.25,217.1
"2016-04-21 01:40:30",1565412,4.612,260.7,7.352,1.592,13.89,103.972,9.44,10.62,47.8,0,110.3,13.16,10.23,222.7
"2016-04-21 01:41:00",1565413,4.882,262.4,7.263,1.407,15.3,103.9595,9.41,10.68,48.23,0,110.3,13.16,10.20,224.4
"2016-04-21 01:41:30",1565414,3.772,253.5,6.462,1.281,13.92,103.9604,9.41,10.53,48.04,0,110.3,13.16,10.20,215.5
"2016-04-21 01:42:00",1565415,5.131,258.1,7.746,1.46,15.46,103.952,9.39,10.65,48.18,0,110.3,13.16,10.18,220.1
"2016-04-21 01:42:30",1565416,4.528,246.1,7.117,1.129,13.92,103.9435,9.37,10.52,48.11,0,110.3,13.16,10.15,208.1
"2016-04-21 01:43:00",1565417,4.513,250.9,10.22,1.447,14.66,103.9328,9.34,10.62,48.17,0,110.3,13.16,10.13,212.9
"2016-04-21 01:43:30",1565418,2.86,248.1,5.255,0.409,12.41,103.9269,9.33,10.4,47.94,0,110.3,13.21,10.11,210.1
"2016-04-21 01:44:00",1565419,3.18,246.1,4.894,0.73,12.37,103.9269,9.33,10.39,48.01,0,110.3,13.21,10.11,208.1
"2016-04-21 01:44:30",1565420,3.608,259.9,9.48,1.223,14.15,103.9269,9.33,10.46,48.1,0,110.3,13.17,10.11,221.9
"2016-04-21 01:45:00",1565421,3.368,262.5,6.956,1.274,14.68,103.9201,9.31,10.47,47.72,0,110.3,13.17,10.09,224.5
"2016-04-21 01:45:30",1565422,3.563,258.6,7.442,1.422,14.43,103.9133,9.29,10.45,47.49,0,110.3,13.17,10.08,220.6
"2016-04-21 01:46:00",1565423,4.909,262.5,7.366,1.437,15.58,103.9018,9.26,10.52,47.93,0,110.3,13.17,10.05,224.5
"2016-04-21 01:46:30",1565424,5.088,269.3,8.68,1.466,14.82,103.8975,9.25,10.48,48.27,0,110.3,13.17,10.04,231.3
"2016-04-21 01:47:00",1565425,4.661,265.6,9.52,1.443,14.19,103.893,9.24,10.42,48.35,0,110.3,13.17,10.02,227.6
"2016-04-21 01:47:30",1565426,3.225,263.7,6.536,0.603,12.41,103.8936,9.24,10.29,48.11,0,110.3,13.22,10.03,225.7